Location: La Brionne
(46.1728°N, 1.7849°E)
Time: 03:01:13
(UTC+00:00)

NOAA 18 - Visible Passes

Search period start: 19 April 2024 00:00
Search period end: 29 April 2024 00:00
Orbit: 839 x 858 km, 98.9° (Epoch: 18 April)

Date Brightness Start Highest point End Pass type
(mag) Time Alt. Az. Time Alt. Az. Time Alt. Az.
19 Apr 6.0 21:03:18 33° E 21:04:35 37° ENE 21:09:38 10° N visible
19 Apr 6.2 22:45:15 36° W 22:45:15 36° W 22:50:18 10° NNW visible
20 Apr 6.3 20:50:35 25° E 20:52:13 30° ENE 20:56:58 10° N visible
20 Apr 5.9 22:32:32 45° WSW 22:32:40 45° W 22:37:59 10° NNW visible
21 Apr 6.6 20:37:52 20° E 20:39:53 25° ENE 20:44:15 10° N visible
21 Apr 5.5 22:19:49 57° WSW 22:20:08 57° W 22:25:38 10° NNW visible
22 Apr 6.8 20:25:09 15° E 20:27:34 20° ENE 20:31:29 10° NNE visible
22 Apr 5.2 22:07:06 67° SW 22:07:38 73° WSW 22:13:12 10° NNW visible
22 Apr 7.6 23:49:03 10° W 23:49:14 10° W 23:50:02 10° WNW visible
23 Apr 7.0 20:12:26 11° E 20:15:17 16° NE 20:18:36 10° NNE visible
23 Apr 5.1 21:54:23 68° SSE 21:55:10 90° SE 22:00:45 10° NNW visible
23 Apr 7.4 23:36:20 14° W 23:36:33 14° W 23:39:18 10° WNW visible
24 Apr 7.2 20:00:31 10° E 20:03:01 13° NE 20:05:31 10° NNE visible
24 Apr 5.2 21:41:40 58° SE 21:42:42 73° ENE 21:48:15 10° N visible
24 Apr 7.2 23:23:37 18° W 23:23:54 18° W 23:27:34 10° NW visible
25 Apr 7.4 19:49:40 10° ENE 19:50:46 11° NE 19:51:53 10° NE visible
25 Apr 5.4 21:28:58 46° ESE 21:30:16 58° ENE 21:35:43 10° N visible
25 Apr 6.9 23:10:55 22° W 23:11:17 22° W 23:15:34 10° NW visible
26 Apr 5.7 21:16:15 36° ESE 21:17:52 46° ENE 21:23:09 10° N visible
26 Apr 6.5 22:58:12 28° WSW 22:58:41 28° W 23:03:25 10° NW visible
27 Apr 6.0 21:03:32 29° ESE 21:05:29 37° ENE 21:10:32 10° N visible
27 Apr 6.2 22:45:29 34° WSW 22:46:07 35° W 22:51:11 10° NNW visible
28 Apr 6.3 20:50:49 22° ESE 20:53:07 30° ENE 20:57:52 10° N visible
28 Apr 5.8 22:32:46 42° WSW 22:33:33 45° W 22:38:52 10° NNW visible
